Sauk Centre, MN

9:39 AM CDT on October 23, 2017 (GMT -0500)
Sauk Centre

Weather History for KD39 - January, 2014

Change the Weather History Date:

Wednesday, January 8, 2014

  Actual Average (KGHW) Record (KGHW)
Temperature  
Mean Temperature -14 °F -  
Max Temperature -4 °F 16 °F 48 °F (1963)
Min Temperature -23 °F -3 °F -24 °F (1967)
Degree Days  
Heating Degree Days 78    
Moisture  
Dew Point -18 °F    
Average Humidity 78    
Maximum Humidity 85    
Minimum Humidity 68    
Precipitation  
Precipitation 0.00 in - - ()
Sea Level Pressure  
Sea Level Pressure 30.35 in    
Wind  
Wind Speed 3 mph (WSW)    
Max Wind Speed 14 mph    
Max Gust Speed -    
Visibility 10 miles    
Events      
Averages and records for this station are not official NWS values.
T = Trace of Precipitation, MM = Missing Value Source: NWS Daily Summary

Daily Weather History Graph

Daily Weather History Graph

Search for Another Location

Airport or City:

Trip Planner

Search our weather history database for the weather conditions in past years. The results will help you decide how hot, cold, wet, or windy it might be!

Date:

Astronomy

Jan. 08, 2014 Rise Set
Actual Time 7:59 AM CST 4:53 PM CST
Civil Twilight 7:25 AM CST 5:27 PM CST
Nautical Twilight 6:48 AM CST 6:04 PM CST
Astronomical Twilight 6:12 AM CST 6:40 PM CST
Moon 11:56 AM CST (1/8) 12:55 AM CST (1/8)
Length of Visible Light 10h 01m
Length of Day
8h 53m
First Quarter, 56% of the Moon is Illuminated
Jan 8
First Quarter
Jan 15
Full
Jan 23
Last Quarter
Jan 30
New
Feb 6
First Quarter

Hourly Weather History & Observations

Time (CST) Temp. Windchill Dew Point Humidity Pressure Visibility Wind Dir Wind Speed Gust Speed Precip Events Conditions
12:13 AM -11.4 °F -25.1 °F -16.1 °F 80% 30.23 in 10.0 mi WNW 5.8 mph - N/A   Clear
12:33 AM -11.6 °F -26.9 °F -16.4 °F 79% 30.23 in 10.0 mi NW 6.9 mph - N/A   Clear
12:52 AM -10.8 °F -26.0 °F -16.1 °F 78% 30.24 in 10.0 mi NNW 6.9 mph - N/A   Clear
1:13 AM -12.6 °F -22.3 °F -17.9 °F 78% 30.24 in 10.0 mi NW 3.5 mph - N/A   Clear
1:32 AM -11.7 °F -23.6 °F -16.4 °F 80% 30.25 in 10.0 mi WNW 4.6 mph - N/A   Scattered Clouds
1:53 AM -12.1 °F -21.7 °F -17.1 °F 78% 30.25 in 10.0 mi WNW 3.5 mph - N/A   Mostly Cloudy
2:13 AM -14.3 °F -24.1 °F -18.8 °F 80% 30.27 in 10.0 mi West 3.5 mph - N/A   Mostly Cloudy
2:32 AM -15.2 °F -25.2 °F -19.7 °F 80% 30.27 in 10.0 mi West 3.5 mph - N/A   Clear
2:53 AM -16.6 °F - -20.9 °F 81% 30.28 in 10.0 mi Calm Calm - N/A   Clear
3:13 AM -17.5 °F - -21.8 °F 81% 30.28 in 10.0 mi Calm Calm - N/A   Clear
3:32 AM -16.1 °F - -20.0 °F 82% 30.29 in 10.0 mi Calm Calm - N/A   Clear
3:53 AM -15.5 °F - -19.5 °F 82% 30.29 in 10.0 mi Calm Calm - N/A   Clear
4:13 AM -18.2 °F - -22.0 °F 83% 30.29 in 10.0 mi Calm Calm - N/A   Clear
4:32 AM -18.6 °F -29.1 °F -22.7 °F 81% 30.29 in 10.0 mi NNW 3.5 mph - N/A   Clear
4:53 AM -18.4 °F - -22.0 °F 84% 30.30 in 10.0 mi Calm Calm - N/A   Clear
5:12 AM -18.6 °F - -22.4 °F 83% 30.30 in 10.0 mi Calm Calm - N/A   Clear
5:32 AM -19.8 °F - -24.2 °F 80% 30.30 in 10.0 mi Calm Calm - N/A   Clear
5:53 AM -20.4 °F - -24.9 °F 80% 30.31 in 10.0 mi Calm Calm - N/A   Clear
6:12 AM -20.2 °F - -24.7 °F 80% 30.31 in 10.0 mi Calm Calm - N/A   Clear
6:33 AM -21.1 °F - -25.8 °F 79% 30.32 in 10.0 mi Calm Calm - N/A   Clear
6:53 AM -21.1 °F -32.0 °F -25.6 °F 80% 30.32 in 10.0 mi West 3.5 mph - N/A   Clear
7:12 AM -21.1 °F - -25.8 °F 79% 30.33 in 10.0 mi Calm Calm - N/A   Clear
7:33 AM -22.0 °F -33.0 °F -26.5 °F 80% 30.33 in 10.0 mi West 3.5 mph - N/A   Clear
7:53 AM -21.6 °F -32.6 °F -26.5 °F 78% 30.34 in 7.0 mi West 3.5 mph - N/A   Clear
8:12 AM -22.7 °F -33.8 °F -27.4 °F 79% 30.36 in 10.0 mi West 3.5 mph - N/A   Clear
8:33 AM -23.3 °F - -27.6 °F 80% 30.37 in 10.0 mi Calm Calm - N/A   Clear
8:52 AM -22.2 °F - -26.7 °F 80% 30.38 in 10.0 mi Calm Calm - N/A   Clear
9:13 AM -20.0 °F - -24.3 °F 80% 30.40 in 10.0 mi Calm Calm - N/A   Clear
9:33 AM -17.5 °F -27.8 °F -21.8 °F 81% 30.40 in 10.0 mi West 3.5 mph - N/A   Clear
9:52 AM -16.1 °F - -20.7 °F 79% 30.40 in 10.0 mi Calm Calm - N/A   Clear
10:13 AM -14.1 °F -23.9 °F -18.6 °F 80% 30.41 in 10.0 mi West 3.5 mph - N/A   Clear
10:33 AM -12.6 °F - -17.5 °F 79% 30.41 in 5.0 mi Calm Calm - N/A   Haze
10:52 AM -11.7 °F - -16.6 °F 79% 30.42 in 5.0 mi Calm Calm - N/A   Haze
11:13 AM -11.2 °F -20.6 °F -16.6 °F 77% 30.41 in 10.0 mi WSW 3.5 mph - N/A   Clear
11:33 AM -10.5 °F - -15.9 °F 77% 30.41 in 10.0 mi Calm Calm - N/A   Clear
11:52 AM -9.4 °F - -15.2 °F 76% 30.40 in 10.0 mi Calm Calm - N/A   Clear
12:13 PM -8.5 °F - -14.6 °F 75% 30.40 in 10.0 mi Calm Calm - N/A   Clear
12:33 PM -7.6 °F -16.5 °F -14.3 °F 73% 30.39 in 10.0 mi WSW 3.5 mph - N/A   Clear
12:52 PM -7.2 °F -18.3 °F -14.8 °F 70% 30.39 in 10.0 mi WSW 4.6 mph - N/A   Clear
1:13 PM -6.3 °F -15.1 °F -13.7 °F 70% 30.38 in 10.0 mi West 3.5 mph - N/A   Clear
1:33 PM -5.8 °F -14.5 °F -13.0 °F 71% 30.38 in 10.0 mi West 3.5 mph - N/A   Clear
1:52 PM -5.8 °F -14.5 °F -13.4 °F 70% 30.38 in 10.0 mi SW 3.5 mph - N/A   Clear
2:13 PM -5.4 °F -14.1 °F -13.0 °F 70% 30.38 in 10.0 mi SW 3.5 mph - N/A   Clear
2:32 PM -5.3 °F - -13.2 °F 69% 30.38 in 10.0 mi Calm Calm - N/A   Clear
2:53 PM -5.1 °F - -13.2 °F 68% 30.39 in 10.0 mi Calm Calm - N/A   Clear
3:12 PM -4.9 °F - -13.0 °F 68% 30.39 in 10.0 mi Calm Calm - N/A   Clear
3:33 PM -4.9 °F - -13.2 °F 68% 30.40 in 10.0 mi Calm Calm - N/A   Clear
3:53 PM -5.4 °F - -13.4 °F 69% 30.40 in 10.0 mi Calm Calm - N/A   Clear
4:12 PM -5.8 °F - -13.5 °F 69% 30.39 in 10.0 mi Calm Calm - N/A   Clear
4:33 PM -5.8 °F - -13.5 °F 69% 30.39 in 10.0 mi Calm Calm - N/A   Clear
4:52 PM -6.3 °F - -13.5 °F 71% 30.39 in 10.0 mi Calm Calm - N/A   Clear
5:12 PM -8.0 °F - -14.4 °F 73% 30.39 in 10.0 mi Calm Calm - N/A   Clear
5:33 PM -8.5 °F - -14.6 °F 75% 30.38 in 10.0 mi Calm Calm - N/A   Clear
5:52 PM -11.7 °F - -17.1 °F 77% 30.38 in 10.0 mi Calm Calm - N/A   Clear
6:13 PM -12.3 °F - -17.0 °F 80% 30.37 in 10.0 mi Calm Calm - N/A   Clear
6:33 PM -13.5 °F - -17.9 °F 81% 30.38 in 10.0 mi Calm Calm - N/A   Clear
6:52 PM -13.5 °F -23.3 °F -17.1 °F 84% 30.37 in 10.0 mi SSE 3.5 mph - N/A   Clear
7:13 PM -15.9 °F - -19.8 °F 82% 30.37 in 10.0 mi Calm Calm - N/A   Clear
7:33 PM -14.4 °F -24.3 °F -18.4 °F 82% 30.36 in 10.0 mi ESE 3.5 mph - N/A   Clear
7:52 PM -15.7 °F - -19.3 °F 84% 30.37 in 10.0 mi Calm Calm - N/A   Clear
8:13 PM -19.5 °F -30.1 °F -24.0 °F 80% 30.36 in 10.0 mi East 3.5 mph - N/A   Clear
8:33 PM -18.6 °F - -22.9 °F 81% 30.37 in 10.0 mi Calm Calm - N/A   Clear
8:52 PM -21.1 °F -32.0 °F -25.6 °F 80% 30.36 in 10.0 mi SE 3.5 mph - N/A   Clear
9:13 PM -19.5 °F -30.1 °F -23.8 °F 81% 30.36 in 10.0 mi SSE 3.5 mph - N/A   Clear
9:32 PM -19.1 °F -29.7 °F -23.1 °F 82% 30.36 in 10.0 mi SE 3.5 mph - N/A   Clear
9:52 PM -14.8 °F -29.1 °F -18.2 °F 85% 30.36 in 10.0 mi SSE 5.8 mph - N/A   Clear
10:13 PM -11.9 °F -29.9 °F -15.3 °F 85% 30.34 in 10.0 mi SE 9.2 mph - N/A   Mostly Cloudy
10:32 PM -9.6 °F -24.5 °F -13.5 °F 83% 30.34 in 10.0 mi SSE 6.9 mph - N/A   Overcast
10:53 PM -8.5 °F -24.5 °F -12.3 °F 83% 30.32 in 10.0 mi SE 8.1 mph - N/A   Overcast
11:13 PM -5.8 °F -23.4 °F -9.9 °F 82% 30.33 in 10.0 mi SSE 10.4 mph - N/A   Overcast
11:32 PM -5.3 °F -21.7 °F -9.2 °F 83% 30.32 in 10.0 mi SSE 9.2 mph - N/A   Overcast
11:53 PM -4.0 °F -23.7 °F -8.1 °F 82% 30.30 in 10.0 mi SSE 13.8 mph - N/A   Overcast